Location: Unspecified
(44.0704°N, 88.6889°W)
Time: 13:39:41
(UTC+01:00)

Okean 3 - Pass Details

Date: 07 October 2020
Orbit: 575 x 602 km, 82.5° (Epoch: 26 October)

Event Time Altitude Azimuth Distance (km) Brightness Sun altitude
Exits shadow 12:50:07 21° 259° (W) 1,349 4.7 -13.4°
Maximum altitude 12:51:26 25° 287° (WNW) 1,227 4.5 -13.2°
Drops below altitude 10° 12:54:57 10° 343° (NNW) 1,928 6.0 -12.5°
Sets 12:57:29 0° 357° (N) 2,828 7.0 -12.1°
